Lapse_Rate
7.1 6.5 6.5 6.5 6.5 6.5 6.5 6.5 6.5 6.5 6.5 6.5 6.5 6.5 6.5 6.5 6.7 6.6 6.7 6.7 6.7 6.8 7.3 7.1 6.7 6.3 6.1 5.1 5.9 5.6 5.8 5.1 5.2 6.6 7.3 7.6 7.7 7.3 7.4 7.3 7.8 8.1 8.2 8.6
6.5 6.5 6.5 6.5 6.5 6.5 6.5 6.5 6.5 6.5 6.5 6.5 6.5 6.5 6.5 6.5 6.5 6.6 6.7 6.6 6.7 6.9 7.2 7.3 6.6 6.2 4.6 4.2 4.9 5.1 5.6 5.4 6.0 7.1 7.0 7.9 7.6 7.4 7.7 7.3 7.2 7.8 8.2 8.1
6.5 6.5 6.5 6.5 6.5 6.5 6.5 6.5 6.5 6.5 6.5 6.5 6.5 6.5 6.5 6.5 6.6 6.8 6.9 6.9 6.9 6.9 6.8 6.8 7.0 5.3 4.5 3.8 4.5 5.9 6.2 6.4 7.2 7.4 7.3 7.5 7.1 7.1 7.2 7.3 7.3 7.1 7.9 8.1
6.5 6.5 6.5 6.5 6.5 6.5 6.5 6.5 6.5 6.5 6.5 6.5 6.5 6.5 6.5 6.5 6.5 6.5 6.6 6.7 6.8 7.0 7.0 6.9 6.8 4.6 4.7 5.5 6.5 7.6 7.8 7.5 7.6 7.3 7.4 7.2 6.9 7.2 7.1 6.8 6.0 6.6 8.5 8.9
6.5 6.5 6.5 6.5 6.5 6.5 6.5 6.5 6.5 6.5 6.5 6.5 6.5 6.5 6.5 6.5 6.5 6.5 6.5 6.7 6.8 7.0 7.1 7.2 7.1 5.7 7.1 7.0 7.4 7.9 7.7 7.6 7.9 7.3 7.0 7.0 7.4 7.1 7.3 7.7 6.3 6.6 6.6 7.4
6.5 7.0 6.5 6.5 6.5 6.5 6.5 6.5 6.5 6.5 6.5 6.5 6.5 6.5 6.5 6.5 6.5 6.5 6.5 6.8 6.9 7.2 7.3 7.3 6.1 7.6 7.8 8.1 8.2 8.0 7.7 7.8 7.6 7.7 7.4 7.1 7.2 7.1 7.2 7.3 6.7 6.2 6.5 6.6
6.5 6.5 6.5 6.5 6.5 6.5 6.5 6.5 6.5 6.5 6.5 6.5 6.5 6.5 6.5 6.5 6.5 6.5 6.5 6.7 7.0 7.3 7.2 6.5 7.3 8.0 7.8 7.9 8.2 8.3 8.2 7.6 7.5 8.0 7.3 7.8 7.4 7.9 7.9 8.1 7.8 7.6 6.4 6.8
6.5 6.5 6.5 6.5 6.5 6.5 6.5 6.5 6.5 6.5 6.5 6.5 6.5 6.5 6.5 6.5 6.5 6.7 6.9 7.0 7.2 7.2 7.4 7.6 7.9 7.9 8.2 8.1 8.3 8.5 8.5 8.1 8.3 8.2 7.9 8.1 8.3 7.7 8.1 8.0 6.9 7.1 7.6 6.6
6.5 6.5 6.5 6.5 6.5 6.5 6.5 6.5 6.5 6.5 6.5 6.5 6.5 6.5 6.5 6.5 6.5 6.5 6.5 6.8 6.8 6.9 7.0 7.6 7.9 7.9 8.0 8.1 8.2 8.2 8.3 8.4 8.4 8.3 8.0 8.1 8.0 7.5 7.1 7.6 7.8 7.2 7.4 6.7
6.5 6.5 6.5 6.5 6.5 6.5 6.5 6.5 6.5 6.5 6.5 6.5 6.5 6.5 6.5 6.5 6.5 6.5 6.5 6.5 6.6 7.0 7.4 7.6 7.9 7.8 8.1 8.3 8.1 8.3 8.4 8.3 8.4 8.3 8.3 8.4 7.6 8.5 7.9 8.6 7.2 7.5 7.9 7.3
6.5 6.5 6.5 6.5 6.5 6.5 6.5 6.5 6.5 6.5 6.5 6.5 6.5 6.5 6.5 6.5 6.5 6.5 6.5 6.6 6.8 7.1 7.5 7.7 8.0 8.1 8.5 8.5 8.7 8.1 8.3 8.4 8.2 8.3 8.3 7.3 7.0 8.3 7.1 7.9 7.2 7.7 8.2 7.7
6.5 6.5 6.5 6.5 6.5 6.5 6.5 6.5 6.5 6.5 6.5 6.5 6.5 6.5 6.5 6.5 6.5 6.5 6.5 6.7 7.1 7.3 7.6 8.1 8.2 8.2 8.5 8.4 8.5 8.3 8.1 8.4 8.5 8.5 7.3 6.5 7.9 7.5 7.3 7.7 7.3 7.9 8.1 7.7
6.5 6.5 6.5 6.5 6.5 6.5 6.5 6.5 6.5 6.5 6.5 6.5 6.5 6.5 6.5 6.5 6.5 6.5 6.5 6.9 7.1 7.1 7.5 7.8 8.0 8.2 8.4 8.4 8.5 8.6 8.4 8.4 8.7 8.7 7.4 6.3 6.8 6.6 7.1 7.4 7.4 7.8 8.1 7.7
6.7 6.5 6.5 6.5 6.5 6.5 6.5 6.5 6.5 6.5 6.5 6.5 6.5 6.5 6.5 6.5 6.5 6.5 6.6 6.9 7.1 7.1 7.3 7.7 7.8 8.1 8.3 8.4 8.6 8.6 8.5 8.6 8.6 8.7 6.9 6.5 7.0 6.5 7.4 7.1 7.9 7.3 8.4 8.1
6.5 6.5 6.5 6.5 6.5 6.5 6.5 6.5 6.5 6.5 6.5 6.5 6.5 6.5 6.5 6.5 6.5 6.5 6.7 6.9 7.0 7.2 7.4 7.5 7.5 7.8 8.2 8.1 8.2 8.5 8.6 8.6 8.6 8.3 6.9 6.3 6.9 7.1 7.5 7.4 7.8 8.2 7.7 7.3
6.5 6.5 6.5 6.5 6.5 6.5 6.5 6.5 6.5 6.5 6.5 6.5 6.5 6.5 6.5 6.5 6.8 6.6 6.7 6.9 6.9 7.2 7.5 7.7 7.8 8.0 8.0 8.1 8.2 8.2 8.3 8.4 8.6 7.3 7.3 6.7 6.7 7.1 7.2 7.4 7.7 7.9 8.1 7.4
6.5 6.5 6.5 6.5 6.5 6.5 6.5 6.5 6.5 6.5 6.5 6.5 6.5 6.5 6.5 6.5 6.5 6.5 6.7 7.0 7.0 7.2 7.5 7.7 7.8 7.8 7.7 8.1 7.8 7.9 8.1 8.5 8.4 7.7 7.4 8.2 8.7 7.9 7.3 7.4 7.2 7.3 7.3 7.4
6.5 6.5 6.5 6.5 6.5 6.5 6.5 6.5 6.5 6.5 6.5 6.5 6.5 6.5 6.5 6.5 6.8 7.2 7.4 7.1 6.9 7.2 7.5 7.4 7.8 7.5 7.6 8.1 8.1 8.1 8.6 8.6 8.8 8.2 7.6 8.8 9.0 8.8 7.3 6.9 6.4 6.5 6.6 6.8
6.5 6.5 6.5 6.5 6.5 6.5 6.5 6.5 6.5 6.5 6.5 6.5 6.5 6.5 6.5 6.9 7.1 6.9 7.4 7.7 7.5 7.2 7.4 7.4 7.9 7.7 7.6 7.9 7.9 8.3 8.4 8.6 8.8 8.7 8.3 8.9 8.1 7.8 8.5 7.3 6.6 6.3 6.1 5.6
6.5 6.5 6.5 6.5 6.5 6.5 6.5 6.5 6.8 6.5 6.5 6.5 6.5 6.5 6.5 6.6 6.5 6.5 7.5 7.8 7.8 7.8 7.5 7.7 8.0 8.0 7.6 7.6 7.7 7.8 8.3 8.4 8.5 8.8 8.9 9.0 6.8 7.1 7.2 7.6 7.1 6.4 6.3 6.3
6.5 6.5 6.5 6.5 6.5 6.5 6.5 6.5 7.0 6.5 6.5 6.6 6.9 6.8 6.7 6.5 6.8 7.3 7.8 7.8 8.0 8.1 7.6 7.9 7.7 7.7 7.4 7.6 7.5 7.9 8.0 8.1 8.7 9.0 9.1 8.7 6.4 6.2 6.2 6.9 6.4 7.0 6.3 6.5
6.5 6.5 6.5 6.5 6.5 6.5 6.7 6.7 6.5 6.5 6.4 7.0 7.1 7.2 7.0 7.2 7.5 7.6 7.7 7.8 7.9 8.0 8.0 8.3 7.9 7.6 7.6 7.9 7.7 7.9 7.5 8.2 8.9 9.0 8.9 8.1 7.4 8.4 8.4 7.1 7.0 6.9 6.3 6.7
6.5 6.5 6.5 6.5 6.5 6.6 6.8 6.6 7.0 6.8 6.6 7.2 7.3 7.5 7.5 7.4 7.4 7.6 7.7 7.8 8.0 8.1 8.1 8.4 8.1 7.6 7.8 8.0 8.1 7.8 7.6 8.5 8.8 8.4 8.0 7.7 7.9 7.7 7.4 8.0 7.4 7.0 6.0 6.5
6.5 6.6 6.5 6.5 6.5 6.5 6.9 7.4 7.6 7.7 7.4 7.6 7.8 7.8 7.8 7.5 7.7 7.7 7.8 7.9 8.0 8.1 8.1 8.0 8.1 8.0 7.9 8.1 8.3 8.2 8.3 8.8 8.7 7.9 7.7 7.6 7.7 7.7 7.8 8.6 8.4 7.9 6.8 7.3
6.5 6.5 6.5 6.5 6.5 6.8 7.0 7.3 7.5 7.6 7.8 7.8 8.0 8.0 7.9 7.8 7.7 7.9 7.8 7.9 8.0 8.1 8.3 8.2 8.1 7.8 8.2 8.4 8.5 8.6 8.7 8.7 7.6 7.4 7.8 7.8 8.3 7.7 7.9 8.2 7.2 8.2 4.6 4.9
6.7 6.5 6.5 6.5 6.7 6.7 6.8 7.4 7.9 7.6 7.6 7.8 7.9 7.8 8.1 8.1 7.9 8.1 8.0 8.1 8.1 8.1 8.3 8.3 8.0 7.8 8.3 8.8 8.8 8.8 9.1 8.5 7.3 7.1 7.9 8.3 8.6 8.3 8.4 7.3 5.3 -5.9 -2.9 -4.1
Wind_Speed
22 17 25 43 30 30 28 32 32 29 28 28 25 27 30 22 21 22 19 15 18 19 15 9 8 10 6 6 2 6 7 9 11 9 9 7 6 4 3 4 7 6 5 4
20 29 39 22 31 33 33 31 31 28 26 24 23 26 26 22 21 19 20 17 17 17 16 14 9 8 7 7 5 6 7 8 9 7 7 6 5 6 6 5 6 6 5 5
24 37 23 29 31 29 32 32 27 30 26 26 23 26 25 24 24 22 18 17 17 18 18 19 14 5 9 8 7 6 6 8 9 8 5 3 5 4 4 3 3 5 4 2
24 26 32 31 33 31 28 28 28 27 23 18 21 20 24 18 21 19 18 20 17 19 20 20 16 13 11 10 8 8 8 10 8 9 6 6 4 3 3 4 3 4 5 2
33 24 27 32 36 29 34 24 26 27 24 21 25 15 23 16 17 16 15 16 15 15 13 13 9 15 13 12 10 9 10 10 7 7 7 5 4 4 3 2 7 4 5 3
29 27 28 29 28 31 26 27 27 25 18 17 26 20 25 18 17 18 19 17 14 16 15 11 17 16 14 12 12 11 12 10 9 5 8 7 6 4 3 3 3 3 2 1
24 26 29 30 28 29 31 21 16 17 16 22 18 20 22 19 19 21 17 14 10 8 12 19 18 15 14 14 13 12 12 12 9 6 7 5 6 3 3 1 3 2 3 3
12 14 27 29 32 26 30 25 15 24 15 20 23 22 19 19 22 15 8 8 6 9 14 16 14 14 15 15 15 14 13 12 10 8 7 6 6 3 2 2 3 3 2 4
9 15 24 29 28 28 26 27 28 22 21 16 16 20 29 23 18 13 7 10 8 10 13 14 15 14 15 15 15 14 13 12 10 9 6 6 5 5 5 4 3 3 4 4
7 17 21 25 28 33 28 22 25 17 23 21 20 19 9 14 18 12 9 11 14 14 14 14 14 15 14 14 13 13 12 12 10 9 7 6 5 4 5 3 6 4 3 5
13 12 24 21 24 28 24 23 26 18 19 16 14 13 7 9 7 11 12 14 17 15 15 15 15 15 15 14 14 12 11 11 10 9 6 9 5 5 5 3 5 5 1 5
16 7 17 23 27 26 29 25 23 15 24 17 14 15 7 8 8 12 15 18 17 16 16 16 16 15 15 14 13 12 10 11 10 8 9 8 6 6 4 4 6 5 4 3
6 7 9 21 18 21 26 28 25 21 13 19 17 14 6 8 13 13 16 18 16 17 18 17 16 15 14 13 12 12 10 10 10 9 11 8 7 6 5 5 4 5 6 5
2 7 16 11 9 16 13 29 31 24 19 18 19 3 11 13 11 12 16 17 17 17 17 16 15 14 14 13 13 12 10 10 9 9 12 9 8 5 6 5 3 4 5 5
3 7 17 19 10 14 22 27 31 28 24 21 21 10 17 14 12 15 15 16 17 17 16 15 14 14 13 13 12 11 10 10 8 9 11 8 8 6 7 5 3 1 4 5
7 4 18 17 12 15 24 27 23 30 27 27 26 14 12 16 14 14 13 17 16 16 16 16 15 15 14 13 12 11 10 10 8 14 11 8 9 8 8 6 5 3 3 5
12 7 7 12 7 9 17 23 22 26 24 27 18 10 22 14 11 15 14 15 14 15 15 15 14 13 12 12 11 10 10 10 8 13 9 8 9 11 9 8 7 5 4 4
14 11 3 4 10 5 10 14 22 24 23 22 8 13 17 17 15 17 17 13 5 15 14 14 12 13 13 12 12 10 11 10 10 13 12 9 10 9 9 8 7 6 4 4
11 8 4 2 4 15 11 12 12 11 7 19 18 19 17 15 21 16 13 12 10 9 13 13 13 13 11 12 12 11 11 11 11 10 11 10 11 9 7 6 8 6 5 4
10 6 4 1 3 5 8 20 28 16 10 16 15 16 12 6 10 7 11 11 10 10 3 14 14 14 13 11 12 10 11 11 11 10 11 11 14 10 6 7 6 5 5 5
2 2 4 3 1 7 18 28 24 3 3 9 14 13 13 11 8 4 7 8 8 8 6 15 15 13 13 12 12 11 11 10 10 11 11 11 13 11 9 6 6 5 6 6
3 4 1 3 4 5 19 14 9 7 4 11 12 11 11 8 8 8 7 7 7 8 8 15 14 14 13 13 12 12 11 10 10 11 11 13 13 10 8 9 5 8 6 8
4 4 3 5 2 6 13 8 12 11 10 13 12 11 10 10 9 7 6 5 6 6 6 9 14 15 14 14 13 12 11 11 11 11 10 13 10 11 10 7 8 8 6 7
6 12 3 1 5 10 11 13 13 16 15 16 11 11 11 9 9 8 7 4 4 5 7 9 15 16 14 14 14 11 12 12 12 11 10 13 10 12 10 7 5 8 8 7
3 5 8 3 8 9 9 15 16 9 11 12 12 11 8 8 9 10 8 9 6 4 5 8 11 15 16 15 14 13 14 13 10 10 10 10 8 10 9 7 3 5 5 2
4 5 2 1 6 5 8 10 13 9 7 7 8 10 8 8 8 10 10 10 10 10 6 7 8 15 16 15 14 14 14 13 11 11 9 9 9 8 8 7 4 12 9 12
Wind_Direction
225 217 222 220 220 240 236 239 248 254 253 247 256 260 265 276 275 259 247 254 268 263 284 237 236 265 238 111 139 149 145 132 150 160 168 175 185 166 224 185 187 185 183 216
227 220 226 232 227 234 244 254 253 261 261 258 265 261 264 256 255 254 266 244 251 258 275 282 234 261 123 130 118 106 129 139 155 153 166 173 174 181 203 189 186 176 181 218
225 235 227 234 234 234 234 236 247 258 268 270 273 271 267 266 271 272 267 275 273 276 272 273 273 171 135 129 133 146 153 154 148 144 150 163 172 173 182 168 141 184 178 181
247 240 240 227 237 230 240 233 243 248 253 260 258 270 253 258 264 259 257 255 249 243 244 244 241 131 138 134 139 150 149 145 155 141 173 151 155 174 175 198 112 105 169 159
242 242 234 239 237 229 244 243 245 244 250 258 253 260 266 275 272 276 269 259 253 253 253 257 221 133 137 133 137 143 140 151 158 154 140 143 187 182 169 123 112 111 71 25
253 249 256 245 241 247 238 243 248 255 254 246 242 244 267 260 271 277 269 265 257 235 241 235 117 128 130 135 134 139 149 164 137 170 139 173 200 50 82 126 112 121 105 354
246 243 251 250 251 231 240 229 234 236 235 242 243 238 256 269 268 269 276 265 257 245 222 114 126 133 137 134 138 146 159 136 155 156 132 173 106 109 108 160 135 166 150 196
276 270 225 239 241 235 224 233 220 219 216 245 248 251 256 253 254 248 284 232 225 129 107 122 131 133 137 139 147 153 149 153 162 150 159 137 137 164 174 93 91 127 187 113
315 278 261 222 243 239 230 226 236 244 234 251 253 235 239 243 246 239 199 199 138 123 121 130 130 139 138 145 155 147 153 159 160 156 154 149 142 120 109 98 96 137 135 167
280 288 280 286 223 245 243 219 226 223 234 239 235 250 274 200 225 212 206 164 134 124 135 138 142 141 141 149 142 152 155 157 156 155 158 153 151 102 128 120 121 141 153 130
269 260 271 288 266 215 230 235 217 237 227 238 247 269 199 172 143 148 171 161 137 141 145 141 145 142 144 145 150 150 157 160 157 166 157 130 129 144 107 140 113 121 198 93
295 279 258 267 273 217 232 224 230 218 219 236 246 248 89 101 138 164 165 144 135 145 144 150 144 149 148 153 149 160 155 158 165 165 140 143 138 120 160 147 127 149 187 194
344 244 260 258 267 259 229 221 233 237 240 218 235 242 164 170 211 178 126 130 140 148 147 143 150 150 154 151 158 157 166 158 162 185 137 140 119 129 151 154 194 186 168 188
348 259 263 253 314 339 284 211 230 227 211 227 227 194 165 175 144 127 121 133 145 144 148 148 155 152 158 154 162 158 171 155 173 184 127 123 124 154 153 155 186 263 176 149
206 269 288 257 256 304 302 284 224 223 203 222 235 162 209 176 160 121 127 141 142 146 156 152 155 155 158 159 155 162 166 160 174 133 121 127 137 159 141 141 155 21 77 56
219 282 301 281 215 273 288 275 266 220 200 221 240 159 125 98 104 124 145 141 151 153 157 154 161 158 159 161 159 161 160 154 169 125 138 145 160 156 140 150 147 152 129 120
280 302 320 249 197 321 276 236 240 211 204 213 227 162 127 144 119 151 155 150 157 155 151 162 162 160 155 161 160 161 152 153 166 128 146 158 145 144 155 164 156 153 142 116
262 285 270 10 61 266 242 244 251 206 197 209 164 164 141 115 91 56 45 28 83 157 159 156 158 154 152 159 151 161 152 161 172 152 153 165 155 148 142 158 159 158 155 151
227 257 275 206 199 295 324 0 337 261 81 14 40 74 62 83 93 55 23 17 2 347 156 154 154 151 150 158 150 165 159 170 174 164 150 160 124 132 129 123 116 130 133 124
174 222 231 62 255 224 20 350 319 298 100 11 40 51 47 23 120 58 357 346 348 334 241 149 151 146 150 158 153 165 163 181 178 166 162 156 137 144 155 124 130 145 143 134
144 231 263 275 224 294 339 330 308 350 79 39 48 43 38 47 49 1 339 332 327 318 299 143 148 152 154 155 157 174 165 187 182 165 159 136 128 138 126 126 139 127 116 117
333 336 338 240 224 340 325 339 52 311 318 46 53 45 45 30 32 24 349 315 316 314 301 150 151 151 155 159 165 182 166 187 183 164 157 132 129 141 130 137 146 117 130 119
11 22 339 7 31 287 299 8 17 353 26 38 35 32 30 30 21 6 333 309 289 274 269 192 156 151 159 165 172 184 165 187 182 163 146 136 153 133 136 148 148 133 147 142
345 7 23 15 357 325 320 6 18 17 7 1 18 23 25 11 10 1 334 322 284 251 237 266 158 157 166 171 175 188 166 191 177 160 151 150 165 144 147 157 183 156 171 169
8 353 346 1 1 352 358 339 336 7 1 355 358 1 25 0 6 354 350 348 336 275 225 248 182 164 168 174 176 187 173 189 171 158 158 153 162 151 152 164 199 175 65 127
1 13 14 47 291 304 318 300 315 347 345 352 343 343 355 21 1 359 353 346 348 328 282 234 249 165 166 175 179 187 179 187 164 160 163 168 173 168 167 159 135 42 79 102